Flag for France Weather past 2 weeks in Biarritz, France

Now
72 °F

Scattered clouds.


Feels Like: 74 °F
Forecast: 63 / 74 °F
Wind: 10 mph from North

Location: Biarritz Airport

Current Time: Jul 22, 2014 at 4:57:39 PM

Latest Report: Jul 22, 2014 at 4:30 PM


Visibility: N/A

Pressure: 30.09 "Hg

Humidity: 73%

Dew point: 63 °F

Location of BiarritzLocation

Historic Weather in Biarritz — Graph

°F

Biarritz temperature yesterday

Maximum temperature yesterday: 72 °F (at 12:30 PM)
Minimum temperature yesterday: 64 °F (at 5:30 AM)
Average temperature yesterday: 68 °F

Past Weeks' High & Low Weather Summary

 TemperatureHumidityPressure
High97 °F (Jul 17, 2:30 PM)100% (Jul 14, 3:00 AM)30.24 "Hg (Jul 14, 3:00 AM)
Low59 °F (Jul 8, 12:00 AM)36% (Jul 17, 2:00 PM)29.74 "Hg (Jul 19, 6:30 PM)
Average68 °F79%30.09 "Hg
* Reported Jul 7 4:00 PM — Jul 22 4:00 PM, Biarritz, Weather by CustomWeather, © 2014

Note: Actual official high and low records may vary slightly from our data, if they occured in-between our weather recording intervals... More about our weather records

Advertising

Biarritz weather history for previous 24 hours

 ConditionsComfort  
Time TempWeatherWind HumidityBarometerVisibility
4:00 PM
Jul 22
72 °FScattered clouds.12 mph73%30.09 "HgN/A
3:30 PM73 °FScattered clouds.10 mph74%30.09 "HgN/A
3:00 PM72 °FScattered clouds.8 mph73%30.12 "HgN/A
2:30 PM72 °FScattered clouds.7 mph69%30.12 "HgN/A
2:00 PM72 °FScattered clouds.8 mph73%30.12 "HgN/A
1:30 PM72 °FScattered clouds.6 mph69%30.12 "HgN/A
1:00 PM73 °FScattered clouds.6 mph61%30.15 "HgN/A
12:30 PM73 °FScattered clouds.5 mph61%30.15 "HgN/A
12:00 PM72 °FScattered clouds.7 mph65%30.15 "HgN/A
11:30 AM72 °FScattered clouds.6 mph69%30.15 "HgN/A
11:00 AM70 °FScattered clouds.6 mph73%30.15 "HgN/A
10:30 AM70 °FPassing clouds.5 mph73%30.15 "HgN/A
10:00 AM68 °FPassing clouds.5 mph78%30.15 "HgN/A
9:30 AM68 °FPassing clouds.5 mph78%30.15 "HgN/A
9:00 AM66 °FPassing clouds.3 mph83%30.15 "HgN/A
8:30 AM64 °FPassing clouds.1 mph88%30.15 "HgN/A
8:00 AM63 °FPassing clouds.1 mph88%30.15 "HgN/A
7:30 AM61 °FPassing clouds.3 mph94%30.15 "HgN/A
7:00 AM59 °FPassing clouds.3 mph100%30.15 "HgN/A
6:30 AM59 °FPassing clouds.3 mph94%30.15 "HgN/A
6:00 AM59 °FPassing clouds.3 mph100%30.15 "HgN/A
5:30 AM59 °FPassing clouds.3 mph94%30.18 "HgN/A
5:00 AM59 °FPassing clouds.3 mph94%30.18 "HgN/A
4:30 AM61 °FPartly cloudy.5 mph94%30.18 "HgN/A
4:00 AM61 °FPartly cloudy.3 mph94%30.18 "HgN/A
3:30 AM61 °FPassing clouds.2 mph88%30.18 "HgN/A
3:00 AM61 °FClear.3 mph94%30.18 "HgN/A
2:30 AM63 °FPassing clouds.2 mph88%30.18 "HgN/A
2:00 AM63 °FPartly cloudy.2 mph88%30.21 "HgN/A
1:30 AM63 °FClear.3 mph88%30.21 "HgN/A
1:00 AM64 °FClear.3 mph83%30.21 "HgN/A
12:30 AM64 °FClear.2 mph83%30.21 "HgN/A
12:00 AM66 °FPassing clouds.2 mph78%30.21 "HgN/A
11:30 PM
Jul 21
66 °FClear.3 mph78%30.21 "HgN/A
10:30 PM66 °FClear.3 mph78%30.21 "HgN/A
10:00 PM68 °FScattered clouds.3 mph78%30.21 "HgN/A
9:30 PM68 °FPartly sunny.7 mph78%30.21 "HgN/A
9:00 PM68 °FBroken clouds.5 mph78%30.21 "HgN/A
8:30 PM70 °FPassing clouds.7 mph73%30.21 "HgN/A
8:00 PM70 °FPassing clouds.7 mph73%30.21 "HgN/A
7:30 PM70 °FScattered clouds.8 mph73%30.21 "HgN/A
7:00 PM72 °FScattered clouds.8 mph69%30.21 "HgN/A
6:30 PM72 °FScattered clouds.9 mph69%30.21 "HgN/A
6:00 PM72 °FScattered clouds.8 mph73%30.21 "HgN/A
5:30 PM72 °FScattered clouds.9 mph73%30.21 "HgN/A
5:00 PM72 °FScattered clouds.9 mph73%30.21 "HgN/A
4:30 PM72 °FScattered clouds.9 mph69%30.21 "HgN/A
4:00 PM72 °FScattered clouds.9 mph69%30.21 "HgN/A
Weather by CustomWeather, © 2014

See weather overviewHow to use our weather pages